{"data":{"norad_id":58245,"epoch":"2026-09-19T02:20:14.022528Z","epoch_age_seconds":264795,"freshness":"STALE","line1":"1 58245U 23171R   26262.09738452  .00000660  00000+0  33522-4 0  9994","line2":"2 58245  43.0022 272.9779 0001713 273.1473  86.9182 15.27577713159317","mean_motion":15.27577713,"eccentricity":0.0001713,"inclination_deg":43.0022,"raan_deg":272.9779,"arg_perigee_deg":273.1473,"mean_anomaly_deg":86.9182,"bstar":3.3522e-5,"rev_number":15931,"period_min":94.266889844314,"perigee_km":481.88062179761,"apogee_km":484.23126650027,"semimajor_km":6861.1929441489,"source":"CELESTRAK","updated_at":"2026-09-21T09:00:33.839001Z"}}